sat.trackr.live / text

‹ back to catalog

STARLINK-4410

NORAD 53204 · 2022-084R

PAYLOAD ACTIVE UNKNOWN

§ Identity

Operator
Country
US
Launch date
2022-07-22
Launch site
AFWTR
Launch vehicle
Mass (kg)
RCS (m²)

Purposes: comms

External: N2YO · Heavens-Above · Gunter

§ Orbital elements

Epoch: 2026-05-25T06:00:02.000160Z

Period
94.59 min
Inclination
97.6005°
Eccentricity
0.0001975
Mean motion
15.22291468 rev/d
Perigee alt
497.6 km
Apogee alt
500.3 km
Semi-major
6,877.1 km
B*
1.9737e-5
RAAN
205.9373°
Arg perigee
63.8974°
Mean anomaly
182.2989°
Rev number
568

§ Raw data

STARLINK-44101 53204U 22084R   26145.25002315  .00000382  00000+0  19737-4 0  99992 53204  97.6005 205.9373 0001975  63.8974 182.2989 15.22291468  5689

JSON: /api/v1/satellites/53204 · /tle

For live sub-satellite position, see the globe view (requires WebGL).

§ Visibility from observer

Set your observer location to see the next 7 days of passes ≥ 10°. The values pass through the URL so the page stays shareable.

No JS? Fill the form by hand. The geolocation button needs JavaScript.

§ Radio — SatNOGS DB

ModeDescriptionDownlinkUplink
CW Ku-band 11325 MHz beacon 11.325 GHz
CW Ku-band 11575 MHz beacon 11.575 GHz
CW Ku-band 11950 MHz beacon 11.950 GHz
CW Ku-band 12450 MHz beacon 12.450 GHz

4 transmitters · refreshed weekly from db.satnogs.org